ITA645 LROP-LIRF

Flight info

Callsign ITA645
Flight time 1h 42m
Altitude 40000
Route POLUN DCT ANASA DCT MITNO DCT VELIT DCT VELUG/N0487F410 DCT ARSOB DCT ETRIN DCT ESODU/N0429F190 Z924 MOPUV
Aircraft A359/H-SDE2E3GHIJ3J4J5LM1ORWXY/LB1D1

Departure

Time 2026-05-07 18:08
Airport Bucharest Henri Coandă International Airport (LROP)

Arrival

Time 2026-05-07 19:50
Airport Rome–Fiumicino Leonardo da Vinci International Airport (LIRF)
Time Latitude Longitude Altitude Speed Heading
2026-05-07 17:49 44.57041 26.08252 309 ft 0 kts 309°
2026-05-07 17:50 44.57205 26.07970 -1803 ft 145 kts 309°
2026-05-07 17:50 44.57613 26.07267 -3280 ft 0 kts 309°
2026-05-07 17:52 44.57041 26.08252 329 ft 0 kts 309°
2026-05-07 18:01 44.57031 26.08270 324 ft 2 kts 309°
2026-05-07 18:01 44.57021 26.08287 324 ft 2 kts 309°
2026-05-07 18:02 44.57001 26.08323 324 ft 2 kts 310°
2026-05-07 18:02 44.56989 26.08343 324 ft 4 kts 310°
2026-05-07 18:02 44.56970 26.08373 324 ft 4 kts 316°
2026-05-07 18:03 44.56954 26.08391 324 ft 0 kts 347°
2026-05-07 18:04 44.56957 26.08391 324 ft 3 kts 355°
2026-05-07 18:04 44.57011 26.08388 324 ft 10 kts 356°
2026-05-07 18:04 44.57088 26.08378 325 ft 13 kts 354°
2026-05-07 18:05 44.57182 26.08366 325 ft 12 kts
2026-05-07 18:05 44.57222 26.08410 325 ft 6 kts 69°
2026-05-07 18:05 44.57241 26.08470 324 ft 8 kts 49°
2026-05-07 18:05 44.57296 26.08493 325 ft 9 kts
2026-05-07 18:06 44.57366 26.08485 325 ft 12 kts 354°
2026-05-07 18:06 44.57457 26.08471 327 ft 15 kts 354°
2026-05-07 18:06 44.57568 26.08455 325 ft 17 kts 354°
2026-05-07 18:06 44.57660 26.08517 327 ft 12 kts 65°
2026-05-07 18:07 44.57662 26.08524 326 ft 0 kts 73°
2026-05-07 18:07 44.57665 26.08544 326 ft 17 kts 76°
2026-05-07 18:07 44.57713 26.09102 324 ft 96 kts 83°
2026-05-07 18:07 44.57806 26.10328 334 ft 158 kts 83°
2026-05-07 18:08 44.57929 26.11890 1055 ft 159 kts 84°
2026-05-07 18:08 44.58052 26.13425 1905 ft 158 kts 85°
2026-05-07 18:08 44.58174 26.14933 2692 ft 153 kts 86°
2026-05-07 18:08 44.58288 26.16511 3056 ft 177 kts 86°
2026-05-07 18:09 44.58417 26.18373 3335 ft 206 kts 86°
2026-05-07 18:09 44.58569 26.20490 3694 ft 229 kts 85°
2026-05-07 18:09 44.58744 26.22850 4053 ft 256 kts 85°
2026-05-07 18:09 44.58731 26.25417 4654 ft 269 kts 103°
2026-05-07 18:10 44.57932 26.27793 5464 ft 273 kts 131°
2026-05-07 18:10 44.56469 26.29425 6340 ft 274 kts 157°
2026-05-07 18:10 44.54626 26.29989 7234 ft 272 kts 184°
2026-05-07 18:10 44.52812 26.29344 8218 ft 270 kts 210°
2026-05-07 18:11 44.51406 26.27638 9226 ft 270 kts 235°
2026-05-07 18:11 44.50828 26.26090 9889 ft 272 kts 250°
2026-05-07 18:11 44.50124 26.22570 10759 ft 295 kts 256°
2026-05-07 18:11 44.49636 26.19650 11132 ft 320 kts 256°
2026-05-07 18:12 44.49252 26.16472 11530 ft 341 kts 263°
2026-05-07 18:12 44.49034 26.13106 12197 ft 352 kts 264°
2026-05-07 18:12 44.48872 26.09645 12978 ft 359 kts 265°
2026-05-07 18:12 44.48742 26.06118 13754 ft 366 kts 266°
2026-05-07 18:13 44.48626 26.02530 14506 ft 371 kts 266°
2026-05-07 18:13 44.48514 25.98946 15318 ft 374 kts 266°
2026-05-07 18:13 44.48396 25.95297 16145 ft 377 kts 266°
2026-05-07 18:13 44.48272 25.91607 16943 ft 380 kts 266°
2026-05-07 18:14 44.48142 25.87878 17736 ft 384 kts 266°
2026-05-07 18:14 44.48006 25.84128 18503 ft 388 kts 266°
2026-05-07 18:14 44.47914 25.81618 18936 ft 391 kts 266°
2026-05-07 18:14 44.47772 25.77800 19609 ft 395 kts 266°
2026-05-07 18:15 44.47627 25.73932 20300 ft 400 kts 266°
2026-05-07 18:15 44.47480 25.70033 21012 ft 404 kts 266°
2026-05-07 18:15 44.47329 25.66083 21729 ft 408 kts 266°
2026-05-07 18:15 44.47125 25.60789 22664 ft 414 kts 266°
2026-05-07 18:16 44.47019 25.58065 23139 ft 416 kts 266°
2026-05-07 18:16 44.46859 25.53990 23789 ft 421 kts 266°
2026-05-07 18:16 44.46698 25.49917 24385 ft 424 kts 266°
2026-05-07 18:16 44.46535 25.45824 25003 ft 427 kts 266°
2026-05-07 18:17 44.46370 25.41701 25647 ft 429 kts 266°
2026-05-07 18:17 44.46201 25.37531 26289 ft 431 kts 266°
2026-05-07 18:17 44.46025 25.33245 26943 ft 433 kts 266°
2026-05-07 18:17 44.45850 25.29015 27527 ft 437 kts 266°
2026-05-07 18:18 44.45676 25.24835 28092 ft 440 kts 266°
2026-05-07 18:18 44.45493 25.20497 28665 ft 443 kts 266°
2026-05-07 18:18 44.45311 25.16213 29239 ft 447 kts 265°
2026-05-07 18:18 44.45125 25.11869 29788 ft 450 kts 265°
2026-05-07 18:19 44.44933 25.07433 30275 ft 453 kts 265°
2026-05-07 18:19 44.44742 25.03055 30721 ft 456 kts 265°
2026-05-07 18:19 44.44547 24.98620 31152 ft 459 kts 265°
2026-05-07 18:19 44.44349 24.94162 31603 ft 461 kts 265°
2026-05-07 18:20 44.44148 24.89654 32022 ft 463 kts 265°
2026-05-07 18:20 44.43944 24.85158 32427 ft 465 kts 265°
2026-05-07 18:20 44.43737 24.80612 32823 ft 467 kts 265°
2026-05-07 18:20 44.43529 24.76075 33256 ft 468 kts 265°
2026-05-07 18:21 44.43319 24.71551 33817 ft 466 kts 265°
2026-05-07 18:21 44.43108 24.67028 34375 ft 462 kts 265°
2026-05-07 18:21 44.42898 24.62560 34823 ft 461 kts 265°
2026-05-07 18:21 44.42687 24.58105 35250 ft 459 kts 265°
2026-05-07 18:22 44.42472 24.53632 35665 ft 458 kts 265°
2026-05-07 18:22 44.42331 24.50704 35931 ft 458 kts 265°
2026-05-07 18:22 44.42043 24.44800 36467 ft 457 kts 265°
2026-05-07 18:22 44.41826 24.40380 36835 ft 456 kts 265°
2026-05-07 18:23 44.41604 24.35908 37208 ft 455 kts 265°
2026-05-07 18:23 44.41385 24.31531 37593 ft 455 kts 265°
2026-05-07 18:23 44.41164 24.27132 37942 ft 454 kts 265°
2026-05-07 18:23 44.40941 24.22740 38291 ft 453 kts 265°
2026-05-07 18:24 44.40715 24.18312 38630 ft 453 kts 265°
2026-05-07 18:24 44.40490 24.13931 38919 ft 452 kts 265°
2026-05-07 18:24 44.40262 24.09552 39153 ft 453 kts 265°
2026-05-07 18:24 44.40033 24.05170 39372 ft 453 kts 265°
2026-05-07 18:25 44.39801 24.00756 39592 ft 453 kts 265°
2026-05-07 18:25 44.39568 23.96370 39821 ft 453 kts 265°
2026-05-07 18:25 44.39332 23.91952 40007 ft 454 kts 265°
2026-05-07 18:26 44.38857 23.83143 40048 ft 455 kts 265°
2026-05-07 18:26 44.38374 23.74328 40048 ft 454 kts 265°
2026-05-07 18:27 44.37889 23.65591 40047 ft 453 kts 265°
2026-05-07 18:27 44.37395 23.56810 40046 ft 452 kts 265°
2026-05-07 18:28 44.36897 23.48075 40048 ft 451 kts 265°
2026-05-07 18:28 44.36390 23.39325 40044 ft 451 kts 265°
2026-05-07 18:29 44.35877 23.30588 40044 ft 450 kts 265°
2026-05-07 18:29 44.35361 23.21890 40047 ft 450 kts 265°
2026-05-07 18:30 44.34836 23.13174 40048 ft 449 kts 265°
2026-05-07 18:30 44.34307 23.04496 40048 ft 449 kts 265°
2026-05-07 18:31 44.33771 22.95795 40040 ft 449 kts 265°
2026-05-07 18:31 44.33228 22.87103 40043 ft 448 kts 265°
2026-05-07 18:32 44.32680 22.78447 40041 ft 448 kts 265°
2026-05-07 18:32 44.32125 22.69770 40040 ft 448 kts 265°
2026-05-07 18:33 44.31563 22.61100 40041 ft 448 kts 265°
2026-05-07 18:33 44.30743 22.52542 40042 ft 447 kts 259°
2026-05-07 18:34 44.29526 22.44017 40043 ft 447 kts 259°
2026-05-07 18:34 44.28259 22.35544 40046 ft 447 kts 258°
2026-05-07 18:35 44.26983 22.27054 40044 ft 446 kts 258°
2026-05-07 18:35 44.25714 22.18601 40048 ft 446 kts 258°
2026-05-07 18:36 44.24438 22.10126 40045 ft 446 kts 258°
2026-05-07 18:36 44.23157 22.01661 40052 ft 446 kts 258°
2026-05-07 18:37 44.21874 21.93228 40052 ft 445 kts 258°
2026-05-07 18:37 44.20580 21.84773 40052 ft 446 kts 258°
2026-05-07 18:38 44.19279 21.76317 40047 ft 446 kts 258°
2026-05-07 18:38 44.17971 21.67862 40048 ft 446 kts 258°
2026-05-07 18:39 44.16662 21.59434 40047 ft 446 kts 258°
2026-05-07 18:39 44.15341 21.50978 40046 ft 447 kts 258°
2026-05-07 18:40 44.14021 21.42575 40041 ft 447 kts 258°
2026-05-07 18:40 44.12682 21.34087 40036 ft 447 kts 257°
2026-05-07 18:41 44.11348 21.25685 40036 ft 447 kts 257°
2026-05-07 18:41 44.10000 21.17228 40038 ft 447 kts 257°
2026-05-07 18:42 44.08645 21.08772 40036 ft 447 kts 257°
2026-05-07 18:42 44.07288 21.00349 40037 ft 447 kts 257°
2026-05-07 18:43 44.05921 20.91903 40039 ft 447 kts 257°
2026-05-07 18:43 44.04548 20.83466 40044 ft 447 kts 257°
2026-05-07 18:44 44.03174 20.75066 40044 ft 446 kts 257°
2026-05-07 18:44 44.01792 20.66655 40046 ft 446 kts 257°
2026-05-07 18:45 44.00403 20.58247 40046 ft 446 kts 257°
2026-05-07 18:45 43.99014 20.49877 40049 ft 446 kts 257°
2026-05-07 18:46 43.97616 20.41490 40049 ft 445 kts 257°
2026-05-07 18:46 43.96212 20.33115 40049 ft 445 kts 257°
2026-05-07 18:47 43.94809 20.24782 40048 ft 444 kts 257°
2026-05-07 18:47 43.93397 20.16436 40049 ft 443 kts 257°
2026-05-07 18:48 43.91980 20.08105 40053 ft 443 kts 257°
2026-05-07 18:48 43.90564 19.99814 40053 ft 442 kts 257°
2026-05-07 18:49 43.89139 19.91513 40051 ft 442 kts 257°
2026-05-07 18:49 43.87720 19.83283 40056 ft 441 kts 257°
2026-05-07 18:50 43.86288 19.75011 40055 ft 441 kts 257°
2026-05-07 18:50 43.84855 19.66775 40057 ft 441 kts 257°
2026-05-07 18:51 43.83412 19.58521 40056 ft 440 kts 257°
2026-05-07 18:51 43.81964 19.50277 40058 ft 440 kts 257°
2026-05-07 18:52 43.80511 19.42045 40057 ft 439 kts 257°
2026-05-07 18:52 43.79059 19.33847 40060 ft 439 kts 257°
2026-05-07 18:53 43.77596 19.25636 40058 ft 439 kts 257°
2026-05-07 18:53 43.76062 19.17485 40060 ft 439 kts 255°
2026-05-07 18:54 43.74353 19.09384 40060 ft 438 kts 255°
2026-05-07 18:54 43.72637 19.01296 40066 ft 437 kts 255°
2026-05-07 18:55 43.70948 18.93216 40062 ft 437 kts 255°
2026-05-07 18:55 43.69273 18.85167 40068 ft 437 kts 255°
2026-05-07 18:56 43.67590 18.77100 40070 ft 436 kts 255°
2026-05-07 18:56 43.65909 18.69076 40071 ft 435 kts 255°
2026-05-07 18:57 43.64217 18.61045 40072 ft 435 kts 255°
2026-05-07 18:57 43.62520 18.53027 40073 ft 435 kts 255°
2026-05-07 18:58 43.60819 18.45017 40075 ft 434 kts 255°
2026-05-07 18:58 43.59121 18.37049 40078 ft 434 kts 255°
2026-05-07 18:59 43.57413 18.29063 40081 ft 433 kts 255°
2026-05-07 18:59 43.55714 18.21140 40094 ft 433 kts 255°
2026-05-07 19:00 43.54277 18.14472 40086 ft 432 kts 255°
2026-05-07 19:00 43.52283 18.05261 40090 ft 432 kts 255°
2026-05-07 19:01 43.50841 17.98622 40092 ft 431 kts 255°
2026-05-07 19:01 43.49118 17.90709 40086 ft 431 kts 255°
2026-05-07 19:02 43.47395 17.82830 40083 ft 431 kts 254°
2026-05-07 19:02 43.45669 17.74930 40081 ft 430 kts 254°
2026-05-07 19:03 43.43936 17.67073 40084 ft 430 kts 254°
2026-05-07 19:03 43.42192 17.59203 40083 ft 429 kts 254°
2026-05-07 19:04 43.40457 17.51397 40091 ft 429 kts 254°
2026-05-07 19:04 43.38709 17.43546 40089 ft 429 kts 254°
2026-05-07 19:05 43.36962 17.35729 40092 ft 429 kts 254°
2026-05-07 19:05 43.35205 17.27893 40089 ft 428 kts 254°
2026-05-07 19:06 43.33421 17.20075 40085 ft 428 kts 253°
2026-05-07 19:06 43.30674 17.08392 40084 ft 428 kts 253°
2026-05-07 19:07 43.28848 17.00624 40077 ft 428 kts 253°
2026-05-07 19:07 43.27018 16.92838 40071 ft 428 kts 253°
2026-05-07 19:08 43.25184 16.85059 40069 ft 428 kts 253°
2026-05-07 19:08 43.23659 16.78607 40064 ft 428 kts 253°
2026-05-07 19:09 43.21951 16.71408 40061 ft 428 kts 253°
2026-05-07 19:09 43.20098 16.63622 40060 ft 428 kts 253°
2026-05-07 19:10 43.18245 16.55865 40055 ft 428 kts 253°
2026-05-07 19:10 43.16400 16.48167 40051 ft 428 kts 253°
2026-05-07 19:11 43.14530 16.40393 40050 ft 427 kts 253°
2026-05-07 19:11 43.12676 16.32711 40046 ft 427 kts 253°
2026-05-07 19:12 43.10805 16.24986 40042 ft 427 kts 253°
2026-05-07 19:12 43.08937 16.17296 40039 ft 427 kts 253°
2026-05-07 19:13 43.07058 16.09590 40040 ft 426 kts 253°
2026-05-07 19:13 43.05176 16.01892 40035 ft 426 kts 253°
2026-05-07 19:14 43.03289 15.94206 40034 ft 426 kts 253°
2026-05-07 19:14 43.01405 15.86555 40032 ft 425 kts 253°
2026-05-07 19:15 42.99511 15.78891 40031 ft 425 kts 253°
2026-05-07 19:15 42.97614 15.71237 40031 ft 425 kts 253°
2026-05-07 19:16 42.95720 15.63620 40029 ft 424 kts 252°
2026-05-07 19:16 42.93816 15.55988 40024 ft 424 kts 252°
2026-05-07 19:17 42.91909 15.48370 40022 ft 423 kts 252°
2026-05-07 19:17 42.89563 15.40968 40024 ft 425 kts 244°
2026-05-07 19:18 42.88391 15.38040 40022 ft 425 kts 244°
2026-05-07 19:18 42.85464 15.31031 40019 ft 425 kts 243°
2026-05-07 19:19 42.82524 15.24101 40016 ft 425 kts 243°
2026-05-07 19:19 42.79574 15.17134 40010 ft 424 kts 243°
2026-05-07 19:20 42.76631 15.10167 40011 ft 424 kts 243°
2026-05-07 19:20 42.73690 15.03216 40010 ft 424 kts 243°
2026-05-07 19:21 42.70749 14.96282 40005 ft 423 kts 243°
2026-05-07 19:21 42.67808 14.89364 40008 ft 422 kts 243°
2026-05-07 19:22 42.64919 14.82468 40008 ft 422 kts 243°
2026-05-07 19:22 42.62038 14.75521 40006 ft 422 kts 243°
2026-05-07 19:23 42.59673 14.69830 40008 ft 421 kts 243°
2026-05-07 19:23 42.56790 14.62914 40008 ft 421 kts 243°
2026-05-07 19:24 42.53900 14.56014 39924 ft 420 kts 243°
2026-05-07 19:24 42.52460 14.52582 39725 ft 418 kts 243°
2026-05-07 19:24 42.51021 14.49155 39477 ft 417 kts 243°
2026-05-07 19:25 42.49591 14.45756 38993 ft 415 kts 243°
2026-05-07 19:25 42.48181 14.42406 38326 ft 414 kts 243°
2026-05-07 19:25 42.46759 14.39027 37634 ft 412 kts 243°
2026-05-07 19:25 42.45340 14.35661 36956 ft 411 kts 242°
2026-05-07 19:26 42.43921 14.32295 36273 ft 411 kts 242°
2026-05-07 19:26 42.42503 14.28928 35604 ft 411 kts 242°
2026-05-07 19:26 42.41080 14.25566 34896 ft 413 kts 242°
2026-05-07 19:26 42.39650 14.22192 34127 ft 415 kts 241°
2026-05-07 19:27 42.38206 14.18795 33225 ft 419 kts 241°
2026-05-07 19:27 42.36748 14.15367 32359 ft 421 kts 241°
2026-05-07 19:27 42.35280 14.11920 31478 ft 424 kts 241°
2026-05-07 19:27 42.33796 14.08450 30569 ft 427 kts 241°
2026-05-07 19:28 42.32303 14.04962 29549 ft 431 kts 241°
2026-05-07 19:28 42.30803 14.01462 28736 ft 430 kts 241°
2026-05-07 19:28 42.29314 13.97989 28020 ft 426 kts 241°
2026-05-07 19:28 42.27827 13.94526 27314 ft 424 kts 241°
2026-05-07 19:29 42.26355 13.91099 26616 ft 421 kts 241°
2026-05-07 19:29 42.24908 13.87733 25936 ft 419 kts 241°
2026-05-07 19:29 42.23448 13.84340 25237 ft 417 kts 241°
2026-05-07 19:29 42.21993 13.80959 24544 ft 416 kts 242°
2026-05-07 19:30 42.20543 13.77594 23860 ft 415 kts 242°
2026-05-07 19:30 42.19163 13.74180 23092 ft 414 kts 247°
2026-05-07 19:30 42.18057 13.70613 22377 ft 411 kts 250°
2026-05-07 19:30 42.17020 13.67026 21667 ft 409 kts 250°
2026-05-07 19:31 42.16006 13.63466 20973 ft 406 kts 250°
2026-05-07 19:31 42.14998 13.59918 20274 ft 404 kts 249°
2026-05-07 19:31 42.13997 13.56387 19573 ft 403 kts 249°
2026-05-07 19:31 42.13006 13.52894 19248 ft 391 kts 249°
2026-05-07 19:32 42.12055 13.49544 19119 ft 375 kts 249°
2026-05-07 19:32 42.11142 13.46334 18997 ft 359 kts 249°
2026-05-07 19:32 42.10265 13.43250 18866 ft 346 kts 249°
2026-05-07 19:32 42.09422 13.40287 18747 ft 333 kts 249°
2026-05-07 19:33 42.08608 13.37429 18611 ft 321 kts 249°
2026-05-07 19:33 42.07821 13.34671 18466 ft 310 kts 249°
2026-05-07 19:33 42.07070 13.32038 18333 ft 300 kts 249°
2026-05-07 19:33 42.06325 13.29447 18026 ft 297 kts 249°
2026-05-07 19:34 42.05407 13.26911 17586 ft 298 kts 241°
2026-05-07 19:34 42.04358 13.24510 17184 ft 297 kts 239°
2026-05-07 19:34 42.03321 13.22196 17029 ft 288 kts 239°
2026-05-07 19:34 42.02295 13.19902 16881 ft 277 kts 239°
2026-05-07 19:35 42.01321 13.17718 16624 ft 275 kts 239°
2026-05-07 19:35 42.00339 13.15517 16277 ft 275 kts 239°
2026-05-07 19:35 41.99391 13.13276 15889 ft 275 kts 243°
2026-05-07 19:35 41.98569 13.10970 15786 ft 275 kts 245°
2026-05-07 19:36 41.97765 13.08634 15642 ft 276 kts 245°
2026-05-07 19:36 41.96961 13.06292 15441 ft 276 kts 245°
2026-05-07 19:36 41.96159 13.03958 15203 ft 274 kts 245°
2026-05-07 19:36 41.95531 13.01546 14930 ft 275 kts 256°
2026-05-07 19:37 41.95374 12.98938 14261 ft 288 kts 271°
2026-05-07 19:37 41.95529 12.96204 13588 ft 298 kts 274°
2026-05-07 19:37 41.95749 12.93422 12999 ft 299 kts 274°
2026-05-07 19:37 41.95973 12.90668 12117 ft 295 kts 275°
2026-05-07 19:38 41.96195 12.87926 11166 ft 296 kts 274°
2026-05-07 19:38 41.96416 12.85220 10785 ft 286 kts 274°
2026-05-07 19:38 41.96630 12.82602 10559 ft 279 kts 274°
2026-05-07 19:38 41.96837 12.80029 10253 ft 275 kts 274°
2026-05-07 19:39 41.97040 12.77483 9952 ft 272 kts 274°
2026-05-07 19:39 41.97244 12.74927 9654 ft 281 kts 274°
2026-05-07 19:39 41.97455 12.72273 9391 ft 287 kts 274°
2026-05-07 19:39 41.97596 12.70506 9160 ft 287 kts 274°
2026-05-07 19:40 41.97801 12.67941 8784 ft 286 kts 275°
2026-05-07 19:40 41.98012 12.65293 8468 ft 285 kts 275°
2026-05-07 19:40 41.98221 12.62650 8144 ft 284 kts 275°
2026-05-07 19:40 41.98428 12.60038 7966 ft 277 kts 275°
2026-05-07 19:41 41.98627 12.57512 7831 ft 266 kts 275°
2026-05-07 19:41 41.98819 12.55075 7602 ft 260 kts 275°
2026-05-07 19:41 41.99010 12.52616 6952 ft 271 kts 275°
2026-05-07 19:41 41.99209 12.50053 6378 ft 279 kts 275°
2026-05-07 19:42 41.99408 12.47483 5888 ft 280 kts 275°
2026-05-07 19:42 41.99610 12.44874 5435 ft 280 kts 275°
2026-05-07 19:42 41.99811 12.42268 5075 ft 280 kts 276°
2026-05-07 19:42 42.00010 12.39674 4695 ft 277 kts 276°
2026-05-07 19:43 42.00207 12.37113 4382 ft 273 kts 276°
2026-05-07 19:43 42.00401 12.34588 4168 ft 271 kts 276°
2026-05-07 19:43 42.00593 12.32077 4137 ft 265 kts 276°
2026-05-07 19:43 42.00774 12.29697 4144 ft 247 kts 276°
2026-05-07 19:44 42.00943 12.27473 4155 ft 232 kts 277°
2026-05-07 19:44 42.01106 12.25331 4169 ft 229 kts 277°
2026-05-07 19:44 42.01272 12.23250 4168 ft 216 kts 279°
2026-05-07 19:44 42.01332 12.21306 4155 ft 201 kts 259°
2026-05-07 19:45 42.00617 12.19858 4190 ft 182 kts 211°
2026-05-07 19:45 41.99439 12.19603 4200 ft 174 kts 166°
2026-05-07 19:45 41.98372 12.20177 4183 ft 161 kts 152°
2026-05-07 19:45 41.97343 12.20768 4051 ft 159 kts 156°
2026-05-07 19:46 41.96285 12.21218 3772 ft 159 kts 162°
2026-05-07 19:46 41.95218 12.21626 3477 ft 161 kts 161°
2026-05-07 19:46 41.94147 12.22073 3044 ft 162 kts 158°
2026-05-07 19:46 41.93060 12.22637 2602 ft 172 kts 158°
2026-05-07 19:47 41.91925 12.23149 2241 ft 172 kts 161°
2026-05-07 19:47 41.91149 12.23432 1945 ft 173 kts 170°
2026-05-07 19:47 41.89987 12.23786 1538 ft 169 kts 162°
2026-05-07 19:47 41.88901 12.24334 876 ft 169 kts 158°
2026-05-07 19:48 41.87782 12.24825 570 ft 162 kts 165°
2026-05-07 19:48 41.86755 12.25266 379 ft 149 kts 162°
2026-05-07 19:48 41.85796 12.25649 224 ft 137 kts 165°
2026-05-07 19:48 41.84891 12.26030 105 ft 136 kts 163°
2026-05-07 19:49 41.83985 12.26410 31 ft 137 kts 163°
2026-05-07 19:49 41.83315 12.26689 27 ft 59 kts 163°
2026-05-07 19:49 41.82933 12.26845 28 ft 55 kts 163°
2026-05-07 19:49 41.82575 12.27001 28 ft 55 kts 161°
2026-05-07 19:50 41.82202 12.27158 21 ft 56 kts 162°
2026-05-07 19:50 41.81837 12.27308 22 ft 55 kts 164°
2026-05-07 19:50 41.81474 12.27415 22 ft 46 kts 187°
2026-05-07 19:50 41.81386 12.27351 24 ft 8 kts 227°
2026-05-07 19:51 41.81343 12.27272 27 ft 18 kts 226°
2026-05-07 19:51 41.81211 12.27244 22 ft 21 kts 163°
2026-05-07 19:51 41.81060 12.27307 20 ft 25 kts 162°